Regional Weather Roundup
Issued by NWS Lake Charles, LA

Home | Current Version | Previous Version | Text Only | Print | Product List | Glossary On
Versions: 1 2 3 4 5 6 7 8 9 10 11 12 13 14 15 16 17 18 19 20 21 22 23 24 25 26 27 28 29 30 31 32 33 34 35 36 37 38 39 40 41 42 43 44 45 46 47 48 49 50
000
ASUS44 KLCH 060310
RWRLCH
REGIONAL WEATHER ROUNDUP
NATIONAL WEATHER SERVICE LAKE CHARLES LA
900 PM CST FRI FEB 05 2016

Note: "fair" indicates few or no clouds below 12,000 feet with no
significant weather and/or obstructions to visibility.


ACROSS SOUTHEAST TEXAS

CITY           SKY/WX    TMP DP  RH WIND       PRES   REMARKS
BEAUMONT       CLEAR     42  33  70 S3        30.38S
BEAUMONT CITY  FAIR      43  30  59 S7        30.38F
ORANGE         CLEAR     39  32  76 CALM      30.40S
JASPER         CLEAR     42  27  55 SW5       30.40R
$$

ACROSS CENTRAL LOUISIANA

CITY           SKY/WX    TMP DP  RH WIND       PRES   REMARKS
LEESVILLE      CLOUDY    45  27  49 VRB1      30.36S
FULLERTON      FAIR      45  33  63 CALM      30.35S
ALEXANDRIA INT CLOUDY    45  34  65 S3        30.37S
ESLER FIELD    CLEAR     38  28  67 CALM      30.38S
DERIDDER         N/A     44  24  47 CALM      30.40R
OAKDALE          N/A     33  32  96 CALM      30.39S
OPELOUSAS      FAIR      38  31  73 CALM      30.39S
$$

ACROSS SOUTHWEST AND SOUTH CENTRAL LOUISIANA

CITY           SKY/WX    TMP DP  RH WIND       PRES   REMARKS
SULPHUR        CLEAR     42  35  76 MISG      30.40R
LAKE CHARLES   CLEAR     39  33  79 CALM      30.39S
CHENNAULT INT  CLEAR     43  32  65 CALM      30.39R
CAMERON PHI    MOCLDY    52  30  43 S8G14     30.41S
DEQUINCY       FAIR      37  30  74 CALM      30.39S
JENNINGS       FAIR      43  27  52 CALM      30.39S
LAFAYETTE      CLEAR     45  27  49 CALM      30.39S
NEW IBERIA     CLEAR     41  33  73 CALM      30.40R
ABBEVILLE      FAIR      39  32  76 CALM      30.39S
PATTERSON      CLEAR     41  28  60 CALM      30.40S
SALT POINT       N/A     41  34  76 CALM      30.38S
$$

SELECTED SITES ACROSS THE REGION

CITY           SKY/WX    TMP DP  RH WIND       PRES   REMARKS
HOUSTON BUSH   PTCLDY    44  33  65 E8        30.37R
HOUSTON HOBBY  PTCLDY    48  34  58 E5        30.35F
GALVESTON      CLEAR     51  38  60 SE15      30.36S
COLLEGE STAT   MOCLDY    49  29  46 SE12      30.34S
CONROE         CLEAR     43  31  62 SE3       30.37R
HUNTSVILLE     CLEAR     49  29  46 SE7       30.34S
LUFKIN         CLEAR     44  27  51 S8        30.36S
SHREVEPORT     CLEAR     40  26  57 SE3       30.36S
MONROE         PTCLDY    41  32  70 CALM      30.40R
NATCHEZ MS     PTCLDY    39  27  60 CALM      30.38S
BATON ROUGE    CLEAR     40  28  62 CALM      30.39R
N.O. INTL ARPT PTCLDY    42  27  55 CALM      30.39R
SLIDELL        CLEAR     35  29  78 CALM      30.39R
$$

MARINE REPORTS

STATION/POSITION TIME  SKY/WX   TEMP    WIND        PRES    VSBY
                                AIR SEA DIR/SP/G
                 (UTC)          (F)     (DEG/KT/KT) (MB)    (MI)
BUOY 30 S HIGH I 0250            53 58  110/ 14/ 16 1028.4F
WVE H/P(F/S)=  3/ 6

SEA RIM ST PARK  0300            51     150/  9/ 10 1029.5R
PORT ARTHUR      0200               57  190/  3/  5 1029.1F
SABINE PASS N    0200            48 57  170/  4/  8 1030.2F
TEXAS POINT      NOT AVBL
CALCASIEU PASS   0200            52 57  170/  7/ 10 1027.9F
LK CHARLES BEACH 0200            48 56              1029.2F
MARSH ISLAND     0200            51     120/  6/  9   N/A
WVE H/P(F/S)=  1

FRESH WATER LOCK 0200            47 57  330/  2/  2 1029.1R
AMERADA PASS     0200            48 51   80/  4/  6 1029.0R
$$



USA.gov is the U.S. government's official web portal to all federal, state and local government web resources and services.